Location: Goettingen
(51.5300°N, 9.9433°E)
Time: 06:12:25
(UTC+02:00)

ISS - Pass Details

Date: 05 May 2021
Orbit: 417 x 422 km, 51.6° (Epoch: 18 May)

Event Time Altitude Azimuth Distance (km) Brightness Sun altitude
Exits shadow 03:34:12 39° 196° (SSW) 650 -3.3 -15.9°
Maximum altitude 03:34:55 47° 157° (SSE) 570 -3.4 -15.8°
Drops below altitude 10° 03:38:11 10° 82° (E) 1,508 -0.3 -15.5°
Sets 03:40:20 0° 76° (ENE) 2,375 0.9 -15.3°
